Time,TemperatureF,DewpointF,PressureIn,WindDirection,WindDirectionDegrees,WindSpeedMPH,WindSpeedGustMPH,Humidity,HourlyPrecipIn,Conditions,Clouds,dailyrainin,SoftwareType,DateUTC
2013-12-13 00:04:00,30.1,14.0,29.96,SW,230,2.0,6.0,51,0.00,,,0.00,weatherlink.com 1.10,2013-12-13 07:04:00,
2013-12-13 00:20:00,29.0,14.0,29.95,SW,230,4.0,6.0,54,0.00,,,0.00,weatherlink.com 1.10,2013-12-13 07:20:00,
2013-12-13 00:35:00,29.5,14.0,29.95,SW,230,4.0,5.0,53,0.00,,,0.00,weatherlink.com 1.10,2013-12-13 07:35:00,
2013-12-13 00:50:00,28.7,14.0,29.93,SW,230,3.0,6.0,55,0.00,,,0.00,weatherlink.com 1.10,2013-12-13 07:50:00,
2013-12-13 01:05:00,28.4,14.0,29.93,SW,230,2.0,5.0,54,0.00,,,0.00,weatherlink.com 1.10,2013-12-13 08:05:00,
2013-12-13 01:20:00,30.3,13.0,29.91,SW,230,2.0,7.0,48,0.00,,,0.00,weatherlink.com 1.10,2013-12-13 08:20:00,
2013-12-13 01:35:00,28.8,13.0,29.91,SW,230,0.0,4.0,51,0.00,,,0.00,weatherlink.com 1.10,2013-12-13 08:35:00,
2013-12-13 01:50:00,28.1,12.0,29.90,SW,230,0.0,3.0,52,0.00,,,0.00,weatherlink.com 1.10,2013-12-13 08:50:00,
2013-12-13 02:05:00,27.2,12.0,29.90,SW,230,3.0,3.0,52,0.00,,,0.00,weatherlink.com 1.10,2013-12-13 09:05:00,
2013-12-13 02:20:00,27.6,12.0,29.89,SW,230,2.0,4.0,52,0.00,,,0.00,weatherlink.com 1.10,2013-12-13 09:20:00,
2013-12-13 02:35:00,28.5,12.0,29.89,SW,230,1.0,5.0,50,0.00,,,0.00,weatherlink.com 1.10,2013-12-13 09:35:00,
2013-12-13 02:50:00,26.6,11.0,29.88,South,185,2.0,7.0,52,0.00,,,0.00,weatherlink.com 1.10,2013-12-13 09:50:00,
2013-12-13 03:05:00,24.1,12.0,29.89,SSW,209,3.0,7.0,59,0.00,,,0.00,weatherlink.com 1.10,2013-12-13 10:05:00,
2013-12-13 03:20:00,28.8,11.0,29.88,SW,219,3.0,6.0,47,0.00,,,0.00,weatherlink.com 1.10,2013-12-13 10:20:00,
2013-12-13 03:35:00,27.8,11.0,29.88,West,265,2.0,5.0,50,0.00,,,0.00,weatherlink.com 1.10,2013-12-13 10:35:00,
2013-12-13 03:50:00,27.9,11.0,29.87,SSW,205,4.0,6.0,49,0.00,,,0.00,weatherlink.com 1.10,2013-12-13 10:50:00,
2013-12-13 04:05:00,28.8,10.0,29.86,SW,224,0.0,5.0,46,0.00,,,0.00,weatherlink.com 1.10,2013-12-13 11:05:00,
2013-12-13 04:20:00,28.8,11.0,29.86,SW,230,2.0,6.0,47,0.00,,,0.00,weatherlink.com 1.10,2013-12-13 11:20:00,
2013-12-13 04:35:00,25.8,12.0,29.86,SW,233,4.0,10.0,55,0.00,,,0.00,weatherlink.com 1.10,2013-12-13 11:35:00,
2013-12-13 04:50:00,26.7,10.0,29.86,SSW,205,3.0,7.0,50,0.00,,,0.00,weatherlink.com 1.10,2013-12-13 11:50:00,
2013-12-13 05:05:00,27.2,11.0,29.86,SW,233,2.0,9.0,50,0.00,,,0.00,weatherlink.com 1.10,2013-12-13 12:05:00,
2013-12-13 05:20:00,27.5,12.0,29.85,SW,221,2.0,9.0,53,0.00,,,0.00,weatherlink.com 1.10,2013-12-13 12:20:00,
2013-12-13 05:35:00,27.0,12.0,29.85,SW,223,5.0,7.0,53,0.00,,,0.00,weatherlink.com 1.10,2013-12-13 12:35:00,
2013-12-13 05:50:00,27.9,10.0,29.85,SW,225,5.0,6.0,47,0.00,,,0.00,weatherlink.com 1.10,2013-12-13 12:50:00,
2013-12-13 06:05:00,28.5,11.0,29.85,SW,214,2.0,6.0,48,0.00,,,0.00,weatherlink.com 1.10,2013-12-13 13:05:00,
2013-12-13 06:20:00,29.4,10.0,29.85,SSW,209,3.0,7.0,44,0.00,,,0.00,weatherlink.com 1.10,2013-12-13 13:20:00,
2013-12-13 06:35:00,26.7,11.0,29.84,SW,218,5.0,11.0,52,0.00,,,0.00,weatherlink.com 1.10,2013-12-13 13:35:00,
2013-12-13 06:50:00,26.6,11.0,29.84,SW,221,1.0,5.0,51,0.00,,,0.00,weatherlink.com 1.10,2013-12-13 13:50:00,
2013-12-13 07:05:00,25.8,10.0,29.85,SW,221,0.0,4.0,52,0.00,,,0.00,weatherlink.com 1.10,2013-12-13 14:05:00,
2013-12-13 07:20:00,26.4,10.0,29.84,SW,223,5.0,7.0,50,0.00,,,0.00,weatherlink.com 1.10,2013-12-13 14:20:00,
2013-12-13 07:35:00,28.4,9.0,29.84,SW,223,4.0,5.0,45,0.00,,,0.00,weatherlink.com 1.10,2013-12-13 14:35:00,
2013-12-13 07:50:00,29.1,10.0,29.86,SW,223,2.0,4.0,45,0.00,,,0.00,weatherlink.com 1.10,2013-12-13 14:50:00,
2013-12-13 08:05:00,31.0,12.0,29.86,SW,223,0.0,3.0,46,0.00,,,0.00,weatherlink.com 1.10,2013-12-13 15:05:00,
2013-12-13 08:20:00,28.8,12.0,29.87,SW,223,1.0,4.0,49,0.00,,,0.00,weatherlink.com 1.10,2013-12-13 15:20:00,
2013-12-13 08:35:00,27.3,14.0,29.88,SW,223,4.0,5.0,58,0.00,,,0.00,weatherlink.com 1.10,2013-12-13 15:35:00,
2013-12-13 08:50:00,30.6,18.0,29.88,SW,224,2.0,7.0,59,0.00,,,0.00,weatherlink.com 1.10,2013-12-13 15:50:00,
2013-12-13 09:06:00,34.6,14.0,29.87,SW,223,3.0,7.0,43,0.00,,,0.00,weatherlink.com 1.10,2013-12-13 16:06:00,
2013-12-13 09:21:00,37.2,21.0,29.87,SW,223,3.0,7.0,52,0.00,,,0.00,weatherlink.com 1.10,2013-12-13 16:21:00,
2013-12-13 09:36:00,38.8,20.0,29.87,South,186,6.0,7.0,47,0.00,,,0.00,weatherlink.com 1.10,2013-12-13 16:36:00,
2013-12-13 09:51:00,39.6,19.0,29.87,SSW,192,3.0,6.0,44,0.00,,,0.00,weatherlink.com 1.10,2013-12-13 16:51:00,
2013-12-13 10:06:00,40.1,19.0,29.87,SE,140,2.0,5.0,43,0.00,,,0.00,weatherlink.com 1.10,2013-12-13 17:06:00,
2013-12-13 10:21:00,40.3,19.0,29.87,SE,140,1.0,3.0,42,0.00,,,0.00,weatherlink.com 1.10,2013-12-13 17:21:00,
2013-12-13 10:36:00,43.1,18.0,29.86,SE,140,1.0,4.0,37,0.00,,,0.00,weatherlink.com 1.10,2013-12-13 17:36:00,
2013-12-13 10:51:00,45.2,20.0,29.85,ENE,72,0.0,5.0,36,0.00,,,0.00,weatherlink.com 1.10,2013-12-13 17:51:00,
2013-12-13 11:06:00,47.1,16.0,29.84,ENE,72,2.0,3.0,29,0.00,,,0.00,weatherlink.com 1.10,2013-12-13 18:06:00,
2013-12-13 11:21:00,47.7,13.0,29.83,ESE,112,3.0,5.0,25,0.00,,,0.00,weatherlink.com 1.10,2013-12-13 18:21:00,
2013-12-13 11:36:00,48.3,11.0,29.82,ESE,119,2.0,8.0,22,0.00,,,0.00,weatherlink.com 1.10,2013-12-13 18:36:00,
2013-12-13 11:51:00,48.8,13.0,29.81,SE,130,3.0,6.0,24,0.00,,,0.00,weatherlink.com 1.10,2013-12-13 18:51:00,
2013-12-13 12:06:00,49.9,11.0,29.81,East,85,3.0,8.0,21,0.00,,,0.00,weatherlink.com 1.10,2013-12-13 19:06:00,
2013-12-13 12:21:00,49.1,15.0,29.81,NE,46,11.0,14.0,26,0.00,,,0.00,weatherlink.com 1.10,2013-12-13 19:21:00,
2013-12-13 12:36:00,46.4,21.0,29.81,NNE,22,16.0,17.0,37,0.00,,,0.00,weatherlink.com 1.10,2013-12-13 19:36:00,
2013-12-13 12:51:00,44.6,19.0,29.82,NE,43,12.0,18.0,36,0.00,,,0.00,weatherlink.com 1.10,2013-12-13 19:51:00,
2013-12-13 13:06:00,43.6,16.0,29.82,NE,50,11.0,15.0,33,0.00,,,0.00,weatherlink.com 1.10,2013-12-13 20:06:00,
2013-12-13 13:21:00,44.3,14.0,29.82,NE,47,8.0,14.0,29,0.00,,,0.00,weatherlink.com 1.10,2013-12-13 20:21:00,
2013-12-13 13:36:00,45.2,15.0,29.83,North,11,2.0,9.0,29,0.00,,,0.00,weatherlink.com 1.10,2013-12-13 20:36:00,
2013-12-13 13:51:00,47.3,14.0,29.84,NE,43,5.0,8.0,26,0.00,,,0.00,weatherlink.com 1.10,2013-12-13 20:51:00,
2013-12-13 14:06:00,48.2,15.0,29.84,ENE,69,5.0,8.0,26,0.00,,,0.00,weatherlink.com 1.10,2013-12-13 21:06:00,
2013-12-13 14:21:00,48.0,14.0,29.85,ENE,66,7.0,13.0,25,0.00,,,0.00,weatherlink.com 1.10,2013-12-13 21:21:00,
2013-12-13 14:36:00,46.4,13.0,29.85,ENE,71,9.0,12.0,26,0.00,,,0.00,weatherlink.com 1.10,2013-12-13 21:36:00,
2013-12-13 14:51:00,45.5,14.0,29.87,NE,40,4.0,11.0,28,0.00,,,0.00,weatherlink.com 1.10,2013-12-13 21:51:00,
2013-12-13 15:06:00,46.4,14.0,29.88,NNE,13,4.0,6.0,27,0.00,,,0.00,weatherlink.com 1.10,2013-12-13 22:06:00,
2013-12-13 15:21:00,46.7,14.0,29.89,ENE,57,8.0,8.0,27,0.00,,,0.00,weatherlink.com 1.10,2013-12-13 22:21:00,
2013-12-13 15:36:00,46.1,14.0,29.90,East,85,7.0,10.0,28,0.00,,,0.00,weatherlink.com 1.10,2013-12-13 22:36:00,
2013-12-13 15:51:00,43.9,15.0,29.91,East,88,5.0,11.0,31,0.00,,,0.00,weatherlink.com 1.10,2013-12-13 22:51:00,
2013-12-13 16:06:00,42.9,17.0,29.93,East,79,8.0,9.0,35,0.00,,,0.00,weatherlink.com 1.10,2013-12-13 23:06:00,
2013-12-13 16:21:00,40.8,17.0,29.94,ENE,77,5.0,8.0,38,0.00,,,0.00,weatherlink.com 1.10,2013-12-13 23:21:00,
2013-12-13 16:36:00,39.6,16.0,29.95,East,90,1.0,8.0,39,0.00,,,0.00,weatherlink.com 1.10,2013-12-13 23:36:00,
2013-12-13 16:51:00,38.0,17.0,29.95,ESE,118,8.0,8.0,42,0.00,,,0.00,weatherlink.com 1.10,2013-12-13 23:51:00,
2013-12-13 17:06:00,37.3,17.0,29.95,ESE,110,4.0,9.0,44,0.00,,,0.00,weatherlink.com 1.10,2013-12-14 00:06:00,
2013-12-13 17:21:00,36.3,18.0,29.96,SE,128,4.0,8.0,47,0.00,,,0.00,weatherlink.com 1.10,2013-12-14 00:21:00,
2013-12-13 17:36:00,35.3,18.0,29.96,SE,128,3.0,7.0,50,0.00,,,0.00,weatherlink.com 1.10,2013-12-14 00:36:00,
2013-12-13 17:51:00,34.7,19.0,29.97,SSE,166,2.0,5.0,52,0.00,,,0.00,weatherlink.com 1.10,2013-12-14 00:51:00,
2013-12-13 18:06:00,34.3,19.0,29.98,SSE,165,4.0,5.0,54,0.00,,,0.00,weatherlink.com 1.10,2013-12-14 01:06:00,
2013-12-13 18:21:00,34.1,18.0,30.00,SSE,165,1.0,5.0,53,0.00,,,0.00,weatherlink.com 1.10,2013-12-14 01:21:00,
2013-12-13 18:36:00,33.7,19.0,30.00,SSE,165,2.0,3.0,55,0.00,,,0.00,weatherlink.com 1.10,2013-12-14 01:36:00,
2013-12-13 18:51:00,33.4,19.0,30.02,SSE,165,0.0,2.0,56,0.00,,,0.00,weatherlink.com 1.10,2013-12-14 01:51:00,
2013-12-13 19:06:00,33.1,19.0,30.02,SSE,165,1.0,3.0,57,0.00,,,0.00,weatherlink.com 1.10,2013-12-14 02:06:00,
2013-12-13 19:21:00,32.4,19.0,30.03,SSE,165,2.0,4.0,59,0.00,,,0.00,weatherlink.com 1.10,2013-12-14 02:21:00,
2013-12-13 19:37:00,31.9,19.0,30.04,South,186,0.0,3.0,60,0.00,,,0.00,weatherlink.com 1.10,2013-12-14 02:37:00,
2013-12-13 19:52:00,32.1,19.0,30.04,South,186,0.0,5.0,60,0.00,,,0.00,weatherlink.com 1.10,2013-12-14 02:52:00,
2013-12-13 20:07:00,32.4,19.0,30.04,SW,221,3.0,7.0,58,0.00,,,0.00,weatherlink.com 1.10,2013-12-14 03:07:00,
2013-12-13 20:22:00,33.2,18.0,30.05,South,169,5.0,6.0,54,0.00,,,0.00,weatherlink.com 1.10,2013-12-14 03:22:00,
2013-12-13 20:37:00,33.4,19.0,30.06,SSW,197,3.0,6.0,55,0.00,,,0.00,weatherlink.com 1.10,2013-12-14 03:37:00,
2013-12-13 20:52:00,33.4,18.0,30.06,South,187,3.0,5.0,54,0.00,,,0.00,weatherlink.com 1.10,2013-12-14 03:52:00,
2013-12-13 21:07:00,33.5,18.0,30.07,South,187,3.0,4.0,53,0.00,,,0.00,weatherlink.com 1.10,2013-12-14 04:07:00,
2013-12-13 21:22:00,33.7,18.0,30.07,SSE,150,2.0,5.0,54,0.00,,,0.00,weatherlink.com 1.10,2013-12-14 04:22:00,
2013-12-13 21:37:00,34.1,18.0,30.08,ESE,114,3.0,8.0,52,0.00,,,0.00,weatherlink.com 1.10,2013-12-14 04:37:00,
2013-12-13 21:52:00,34.0,18.0,30.08,ESE,114,3.0,4.0,52,0.00,,,0.00,weatherlink.com 1.10,2013-12-14 04:52:00,
2013-12-13 22:07:00,33.4,18.0,30.09,East,98,7.0,11.0,54,0.00,,,0.00,weatherlink.com 1.10,2013-12-14 05:07:00,
2013-12-13 22:22:00,33.1,18.0,30.09,ENE,60,7.0,7.0,55,0.00,,,0.00,weatherlink.com 1.10,2013-12-14 05:22:00,
2013-12-13 22:37:00,32.7,18.0,30.11,NE,40,3.0,7.0,56,0.00,,,0.00,weatherlink.com 1.10,2013-12-14 05:37:00,
2013-12-13 22:52:00,32.7,18.0,30.11,ENE,61,5.0,7.0,55,0.00,,,0.00,weatherlink.com 1.10,2013-12-14 05:52:00,
2013-12-13 23:07:00,32.7,18.0,30.12,NE,42,2.0,6.0,56,0.00,,,0.00,weatherlink.com 1.10,2013-12-14 06:07:00,
2013-12-13 23:22:00,32.5,19.0,30.13,NE,42,0.0,3.0,57,0.00,,,0.00,weatherlink.com 1.10,2013-12-14 06:22:00,
2013-12-13 23:37:00,32.2,19.0,30.13,SSW,194,5.0,5.0,58,0.00,,,0.00,weatherlink.com 1.10,2013-12-14 06:37:00,
2013-12-13 23:52:00,31.6,19.0,30.14,SW,221,8.0,9.0,60,0.00,,,0.00,weatherlink.com 1.10,2013-12-14 06:52:00,